Lid_Strength_Index
9 9 9 8 8 7 7 8 7 7 7 8 8 8 8 8 7 7 6 5 4 4 4 5 5 5 6 7 7 8 8 9 9 9 10 9 9 9 9 8 8 7 7
9 8 9 9 8 8 8 8 8 8 8 8 9 9 9 9 8 8 7 6 5 4 4 5 5 6 6 7 7 8 9 8 9 9 10 11 10 10 8 8 8 8 7
9 9 8 9 9 9 8 8 8 8 8 8 8 8 8 8 8 7 8 7 6 5 4 4 5 6 5 6 6 7 8 8 9 8 9 12 12 11 9 9 9 8 9
9 9 8 9 9 9 9 8 8 8 7 7 8 8 9 8 7 7 7 6 6 6 5 4 4 5 6 6 7 7 7 8 9 9 7 9 9 13 13 10 8 9 8
10 10 10 9 8 8 8 8 7 7 6 7 7 7 7 6 6 6 7 6 6 7 6 5 5 6 6 6 6 8 8 8 8 9 9 10 9 9 11 13 11 9 8
10 8 9 8 8 8 8 8 7 7 6 6 6 7 8 8 7 7 7 7 7 7 7 6 7 8 8 8 8 7 7 7 7 7 8 8 10 10 10 11 11 11 8
10 9 9 8 8 8 8 7 7 7 6 5 7 8 8 8 8 8 7 7 8 9 9 8 7 7 7 6 6 6 6 6 6 6 7 6 7 7 8 9 10 11 10
9 9 8 9 8 8 7 7 7 6 6 7 8 8 8 8 8 8 8 8 9 9 7 7 6 6 6 6 5 5 5 6 7 7 7 7 6 6 7 7 8 10 10
9 8 8 8 8 7 7 7 7 7 7 7 9 8 8 9 9 9 9 9 9 7 7 6 6 6 5 5 5 5 6 6 6 6 6 7 7 7 6 7 7 9 11
8 8 7 7 6 7 7 7 7 7 6 9 9 8 9 8 9 9 9 9 8 6 6 6 6 6 6 5 4 5 5 6 6 6 6 7 7 7 7 7 7 8 9
8 8 7 7 6 6 6 6 6 7 6 9 9 9 8 8 9 9 9 8 7 6 6 6 6 6 6 5 6 6 6 7 7 7 8 8 8 9 8 8 8 8 9
8 7 7 6 7 7 6 6 7 7 7 8 8 8 8 9 10 10 9 8 7 7 7 6 6 6 6 6 6 7 7 8 8 8 9 9 8 9 8 9 9 9 9
7 7 7 7 7 6 6 6 6 7 7 7 8 8 9 11 11 10 8 7 7 6 6 6 5 5 5 6 7 8 8 8 9 9 9 10 10 10 10 10 10 10 9
8 7 7 6 6 6 6 6 6 7 7 7 8 9 10 10 10 9 7 6 5 5 4 5 5 6 7 7 7 8 9 9 9 9 10 10 10 11 11 10 10 10 10
7 7 7 6 6 5 5 6 6 7 7 7 8 9 8 8 7 6 6 5 4 4 5 6 7 7 8 8 8 8 9 10 10 10 9 9 9 8 8 9 10 10 10
8 7 7 7 6 5 6 6 6 7 7 7 7 5 5 5 5 4 4 4 3 3 6 8 9 9 8 7 7 7 9 9 9 10 10 10 8 9 8 8 8 8 9
7 8 7 6 5 6 6 7 7 7 7 8 7 6 5 6 6 5 5 7 8 9 9 10 9 9 9 8 8 8 9 10 10 10 10 10 9 9 9 8 8 8 8
7 7 6 6 6 7 8 8 10 9 9 9 8 7 7 6 7 8 9 9 9 9 10 10 9 10 10 8 8 8 10 10 10 10 10 10 10 9 9 9 9 9 9
7 7 6 7 8 8 10 11 11 11 9 9 8 8 8 8 8 9 9 9 10 10 10 9 10 10 10 9 8 9 11 12 11 10 10 10 9 8 8 10 10 10 10
6 7 7 8 8 8 10 9 9 10 10 9 9 8 8 9 10 10 10 10 10 10 9 10 10 10 11 9 8 9 10 11 10 10 9 8 9 9 9 10 10 10 9
7 7 8 9 8 7 8 10 10 10 8 8 7 8 8 9 10 10 10 10 10 10 13 14 13 11 10 10 8 8 9 10 10 10 10 9 9 9 9 9 10 10 9
7 7 8 8 7 6 9 10 11 8 7 7 9 9 9 9 9 10 10 10 11 12 13 14 13 11 11 8 8 8 8 8 9 10 9 10 10 10 9 10 9 9 9
8 8 9 8 7 7 8 7 6 6 7 8 9 9 9 9 9 10 10 10 10 12 12 10 10 9 8 9 7 8 7 7 9 9 8 10 11 11 11 10 10 11 11
8 8 8 7 7 6 6 7 7 7 9 9 9 9 9 9 10 9 9 9 11 12 10 10 10 9 9 9 9 7 8 8 8 9 10 11 11 13 13 12 12 12 11
8 8 7 7 6 6 6 7 7 8 9 9 9 9 9 10 9 8 8 8 9 10 9 11 11 10 10 9 7 7 9 9 9 10 11 13 14 14 14 14 14 13 13
8 7 6 6 6 7 7 8 8 8 9 8 9 11 12 11 10 9 8 6 6 6 6 6 9 8 8 7 7 8 8 9 10 11 13 15 15 16 15 15 15 15 15